Regional Weather Roundup
Issued by NWS Lake Charles, LA

Home | Current Version | Previous Version | Text Only | Print | Product List | Glossary On
Versions: 1 2 3 4 5 6 7 8 9 10 11 12 13 14 15 16 17 18 19 20 21 22 23 24 25 26 27
000
ASUS44 KLCH 191210
RWRLCH
RWRLCH
REGIONAL WEATHER ROUNDUP
NATIONAL WEATHER SERVICE LAKE CHARLES LA
700 AM CDT SAT APR 19 2014

Note: "fair" indicates few or no clouds below 12,000 feet with no
significant weather and/or obstructions to visibility.


ACROSS SOUTHEAST TEXAS

CITY           SKY/WX    TMP DP  RH WIND       PRES   REMARKS
BEAUMONT       MOCLDY    60  56  86 E7        30.15R
BEAUMONT CITY    N/A     57  55  92 E3        30.15S
ORANGE         MOSUNNY   58  57  97 CALM      30.17R
JASPER         CLEAR     53  52  96 NE3       30.18R
$$

ACROSS CENTRAL LOUISIANA

CITY           SKY/WX    TMP DP  RH WIND       PRES   REMARKS
LEESVILLE      PTCLDY    55  53  93 E3        30.17R
FULLERTON        N/A     54  51  90 CALM      30.15R FOG
ALEXANDRIA INT CLEAR     53  53 100 E3        30.17R FOG
ESLER FIELD    FOG       50  48  93 CALM      30.18R VSB 1/2
DERIDDER         N/A     56  55  94 CALM      30.18R
OAKDALE        CLOUDY    49  47  95 CALM      30.18R FOG
OPELOUSAS        N/A     54  53  95 CALM      30.17S
$$

ACROSS SOUTHWEST AND SOUTH CENTRAL LOUISIANA

CITY           SKY/WX    TMP DP  RH WIND       PRES   REMARKS
SULPHUR        SUNNY     59  58  96 E5        30.17R
LAKE CHARLES   CLEAR     58  56  93 E3        30.16R
CHENNAULT INT  CLEAR     57  55  94 E3        30.17R
CAMERON PHI    SUNNY     61  59  94 E9        30.16R
DEQUINCY         N/A     55  54  96 CALM      30.17R
JENNINGS         N/A     56  55  96 E6        30.17R
LAFAYETTE      CLEAR     56  55  97 CALM      30.17R FOG
NEW IBERIA     CLEAR     57  53  86 CALM      30.17R
ABBEVILLE        N/A    N/A N/A N/A CALM      30.17R
PATTERSON      CLEAR     54  52  94 CALM      30.18S
SALT POINT       N/A     58  55  90 CALM      30.15R
$$

SELECTED SITES ACROSS THE REGION

CITY           SKY/WX    TMP DP  RH WIND       PRES   REMARKS
HOUSTON BUSH   MOCLDY    56  54  93 CALM      30.14S
HOUSTON HOBBY  MOCLDY    59  55  87 CALM      30.13S
GALVESTON      CLEAR     62  61  96 NE5       30.14R
COLLEGE STAT   PTCLDY    55  52  89 SW3       30.15R
CONROE         PTCLDY    49  47  93 CALM      30.16R
HUNTSVILLE     PTCLDY    53  51  93 CALM      30.16R FOG
LUFKIN         CLEAR     56  52  86 CALM      30.16R FOG
SHREVEPORT     MOCLDY    52  49  89 CALM      30.17R
MONROE         FOG       50  48  93 CALM      30.20R VSB 1/4
NATCHEZ MS     CLEAR     48  46  93 CALM      30.17S
BATON ROUGE    CLEAR     52  49  89 CALM      30.16S
N.O. INTL ARPT PTCLDY    57  52  83 N5        30.15R
SLIDELL        CLEAR     53  50  89 N3        30.14R
$$

MARINE REPORTS

STATION/POSITION TIME  TEMP    WIND        PRES    VSBY  WAVE
                       AIR SEA DIR/SP/G                  HT/PER
                 (UTC) (F)     (DEG/KT/KT) (MB)    (MI)  (FT/S)
BUOY 30 S HIGH I 1200   67 66   70/ 12/ 14 1019.9R         1/ 8
SEA RIM ST PARK  1200   59      70/  7/  8 1021.4R
PORT ARTHUR      1200      67   70/  7/  8 1020.8R
SABINE PASS N    1200   61 66   80/  5/  6 1020.7R
TEXAS POINT      1200   63 66   80/ 11/ 13 1021.0R
CALCASIEU PASS   1200   61 66   90/  8/  9 1021.9R
LK CHARLES BEACH 1200   59 65              1021.9R
MARSH ISLAND     1100   62      90/ 13/ 15   N/A
FRESH WATER LOCK 1200   58 65   50/  5/  7 1021.1R
AMERADA PASS     1200   58 61   50/  2/  3 1020.9R
$$



USA.gov is the U.S. government's official web portal to all federal, state and local government web resources and services.